JCSAT-3A

Last updated on Mon Oct 14 2024 00:02:37 GMT+0000 (Coordinated Universal Time)

1 29272U 06033A 24287.50351135 -.00000346 00000+0 00000+0 0 9992 2 29272 0.0398 73.2887 0002161 134.8432 123.7110 1.00273231 41609
UTC large
Height (km)
Speed (km/s)
/
Latitude / Longitude
Inclination (degrees)
Orbital Period (minutes)
Azimuth
Elevation
Range (km)
Doppler Factor

Next 0 passes for location: London (51.5072 / 0.1276)

Sorry there are no passes over London.